Time,TemperatureF,DewpointF,PressureIn,WindDirection,WindDirectionDegrees,WindSpeedMPH,WindSpeedGustMPH,Humidity,HourlyPrecipIn,Conditions,Clouds,dailyrainin,SoftwareType,DateUTC
2013-10-13 00:02:00,53.2,37.9,30.23,North,1,0.0,0.0,56,0.00,CLR,,0.00,WeatherDisplay:10.37,2013-10-13 05:02:00,
2013-10-13 00:07:00,53.1,37.8,30.23,North,1,0.0,0.0,56,0.00,CLR,,0.00,WeatherDisplay:10.37,2013-10-13 05:07:00,
2013-10-13 00:12:00,52.9,37.6,30.23,North,1,0.0,0.0,56,0.00,CLR,,0.00,WeatherDisplay:10.37,2013-10-13 05:12:00,
2013-10-13 00:17:00,52.9,37.6,30.22,North,1,0.0,0.0,56,0.00,CLR,,0.00,WeatherDisplay:10.37,2013-10-13 05:17:00,
2013-10-13 00:22:00,52.9,38.1,30.23,North,1,0.0,0.0,57,0.00,CLR,,0.00,WeatherDisplay:10.37,2013-10-13 05:22:00,
2013-10-13 00:27:00,52.7,37.9,30.23,North,1,0.0,0.0,57,0.00,CLR,,0.00,WeatherDisplay:10.37,2013-10-13 05:27:00,
2013-10-13 00:32:00,52.7,37.9,30.23,North,1,0.0,0.0,57,0.00,CLR,,0.00,WeatherDisplay:10.37,2013-10-13 05:32:00,
2013-10-13 00:37:00,52.5,37.7,30.23,North,1,0.0,0.0,57,0.00,CLR,,0.00,WeatherDisplay:10.37,2013-10-13 05:37:00,
2013-10-13 00:42:00,52.2,37.4,30.23,North,1,0.0,0.0,57,0.00,CLR,,0.00,WeatherDisplay:10.37,2013-10-13 05:42:00,
2013-10-13 00:47:00,52.2,37.4,30.23,North,1,0.0,0.0,57,0.00,CLR,,0.00,WeatherDisplay:10.37,2013-10-13 05:47:00,
2013-10-13 00:52:00,52.0,37.7,30.24,North,1,0.0,0.0,58,0.00,CLR,,0.00,WeatherDisplay:10.37,2013-10-13 05:52:00,
2013-10-13 00:57:00,52.0,37.7,30.24,North,1,0.0,0.0,58,0.00,CLR,,0.00,WeatherDisplay:10.37,2013-10-13 05:57:00,
2013-10-13 01:02:00,52.0,37.7,30.24,North,1,0.0,0.0,58,0.00,CLR,,0.00,WeatherDisplay:10.37,2013-10-13 06:02:00,
2013-10-13 01:07:00,51.8,37.5,30.25,North,1,0.0,0.0,58,0.00,CLR,,0.00,WeatherDisplay:10.37,2013-10-13 06:07:00,
2013-10-13 01:12:00,52.0,37.7,30.25,North,1,0.0,0.0,58,0.00,CLR,,0.00,WeatherDisplay:10.37,2013-10-13 06:12:00,
2013-10-13 01:17:00,51.8,37.5,30.25,North,1,0.0,0.0,58,0.00,CLR,,0.00,WeatherDisplay:10.37,2013-10-13 06:17:00,
2013-10-13 01:22:00,51.6,37.3,30.25,North,1,0.0,0.0,58,0.00,CLR,,0.00,WeatherDisplay:10.37,2013-10-13 06:22:00,
2013-10-13 01:27:00,51.4,37.1,30.25,North,1,0.0,0.0,58,0.00,CLR,,0.00,WeatherDisplay:10.37,2013-10-13 06:27:00,
2013-10-13 01:32:00,51.3,37.0,30.25,North,1,0.0,0.0,58,0.00,CLR,,0.00,WeatherDisplay:10.37,2013-10-13 06:32:00,
2013-10-13 01:37:00,51.1,37.2,30.25,North,1,0.0,0.0,59,0.00,CLR,,0.00,WeatherDisplay:10.37,2013-10-13 06:37:00,
2013-10-13 01:42:00,51.1,37.2,30.25,North,1,0.0,0.0,59,0.00,CLR,,0.00,WeatherDisplay:10.37,2013-10-13 06:42:00,
2013-10-13 01:47:00,50.9,37.5,30.25,North,1,0.0,0.0,60,0.00,CLR,,0.00,WeatherDisplay:10.37,2013-10-13 06:47:00,
2013-10-13 01:52:00,50.7,37.3,30.25,North,1,0.0,0.0,60,0.00,CLR,,0.00,WeatherDisplay:10.37,2013-10-13 06:52:00,
2013-10-13 01:57:00,50.7,37.3,30.25,North,1,0.0,0.0,60,0.00,CLR,,0.00,WeatherDisplay:10.37,2013-10-13 06:57:00,
2013-10-13 02:02:00,50.7,37.3,30.25,North,1,0.0,0.0,60,0.00,CLR,,0.00,WeatherDisplay:10.37,2013-10-13 07:02:00,
2013-10-13 02:07:00,50.7,37.3,30.25,North,1,0.0,0.0,60,0.00,CLR,,0.00,WeatherDisplay:10.37,2013-10-13 07:07:00,
2013-10-13 02:12:00,50.5,37.2,30.25,North,1,0.0,0.0,60,0.00,CLR,,0.00,WeatherDisplay:10.37,2013-10-13 07:12:00,
2013-10-13 02:17:00,50.5,37.2,30.26,North,1,0.0,0.0,60,0.00,CLR,,0.00,WeatherDisplay:10.37,2013-10-13 07:17:00,
2013-10-13 02:22:00,50.4,37.0,30.26,North,1,0.0,0.0,60,0.00,CLR,,0.00,WeatherDisplay:10.37,2013-10-13 07:22:00,
2013-10-13 02:27:00,50.4,37.0,30.26,North,1,0.0,0.0,60,0.00,CLR,,0.00,WeatherDisplay:10.37,2013-10-13 07:27:00,
2013-10-13 02:32:00,50.4,37.0,30.26,North,1,0.0,0.0,60,0.00,CLR,,0.00,WeatherDisplay:10.37,2013-10-13 07:32:00,
2013-10-13 02:37:00,50.4,37.0,30.26,North,1,0.0,0.0,60,0.00,CLR,,0.00,WeatherDisplay:10.37,2013-10-13 07:37:00,
2013-10-13 02:42:00,50.2,36.8,30.25,North,1,0.0,0.0,60,0.00,CLR,,0.00,WeatherDisplay:10.37,2013-10-13 07:42:00,
2013-10-13 02:47:00,50.2,36.8,30.25,North,1,0.0,0.0,60,0.00,CLR,,0.00,WeatherDisplay:10.37,2013-10-13 07:47:00,
2013-10-13 02:52:00,50.0,36.7,30.26,North,1,0.0,0.0,60,0.00,CLR,,0.00,WeatherDisplay:10.37,2013-10-13 07:52:00,
2013-10-13 02:57:00,50.0,36.7,30.26,North,1,0.0,0.0,60,0.00,CLR,,0.00,WeatherDisplay:10.37,2013-10-13 07:57:00,
2013-10-13 03:02:00,50.0,36.7,30.26,North,1,0.0,0.0,60,0.00,CLR,,0.00,WeatherDisplay:10.37,2013-10-13 08:02:00,
2013-10-13 03:07:00,49.8,36.5,30.26,North,1,0.0,0.0,60,0.00,CLR,,0.00,WeatherDisplay:10.37,2013-10-13 08:07:00,
2013-10-13 03:12:00,49.8,36.5,30.26,North,1,0.0,0.0,60,0.00,CLR,,0.00,WeatherDisplay:10.37,2013-10-13 08:12:00,
2013-10-13 03:17:00,49.8,36.5,30.26,North,1,0.0,0.0,60,0.00,CLR,,0.00,WeatherDisplay:10.37,2013-10-13 08:17:00,
2013-10-13 03:22:00,49.8,36.5,30.26,North,1,0.0,0.0,60,0.00,CLR,,0.00,WeatherDisplay:10.37,2013-10-13 08:22:00,
2013-10-13 03:27:00,49.6,36.3,30.26,North,1,0.0,0.0,60,0.00,CLR,,0.00,WeatherDisplay:10.37,2013-10-13 08:27:00,
2013-10-13 03:32:00,49.6,36.7,30.26,North,1,0.0,0.0,61,0.00,CLR,,0.00,WeatherDisplay:10.37,2013-10-13 08:32:00,
2013-10-13 03:37:00,49.6,36.7,30.26,North,1,0.0,0.0,61,0.00,CLR,,0.00,WeatherDisplay:10.37,2013-10-13 08:37:00,
2013-10-13 03:42:00,49.5,36.6,30.26,North,1,0.0,0.0,61,0.00,CLR,,0.00,WeatherDisplay:10.37,2013-10-13 08:42:00,
2013-10-13 03:47:00,49.5,36.6,30.26,North,1,0.0,0.0,61,0.00,CLR,,0.00,WeatherDisplay:10.37,2013-10-13 08:47:00,
2013-10-13 03:52:00,49.5,36.6,30.26,North,1,0.0,0.0,61,0.00,CLR,,0.00,WeatherDisplay:10.37,2013-10-13 08:52:00,
2013-10-13 03:57:00,49.3,36.4,30.26,North,1,0.0,0.0,61,0.00,CLR,,0.00,WeatherDisplay:10.37,2013-10-13 08:57:00,
2013-10-13 04:02:00,49.3,36.4,30.26,North,1,0.0,0.0,61,0.00,CLR,,0.00,WeatherDisplay:10.37,2013-10-13 09:02:00,
2013-10-13 04:07:00,49.1,36.2,30.27,North,1,0.0,0.0,61,0.00,CLR,,0.00,WeatherDisplay:10.37,2013-10-13 09:07:00,
2013-10-13 04:12:00,49.1,36.2,30.26,North,1,0.0,0.0,61,0.00,CLR,,0.00,WeatherDisplay:10.37,2013-10-13 09:12:00,
2013-10-13 04:17:00,48.9,36.5,30.26,North,1,0.0,0.0,62,0.00,CLR,,0.00,WeatherDisplay:10.37,2013-10-13 09:17:00,
2013-10-13 04:22:00,48.9,36.5,30.26,North,1,0.0,0.0,62,0.00,CLR,,0.00,WeatherDisplay:10.37,2013-10-13 09:22:00,
2013-10-13 04:27:00,48.7,36.3,30.27,North,1,0.0,0.0,62,0.00,CLR,,0.00,WeatherDisplay:10.37,2013-10-13 09:27:00,
2013-10-13 04:32:00,48.6,36.1,30.27,North,1,0.0,0.0,62,0.00,CLR,,0.00,WeatherDisplay:10.37,2013-10-13 09:32:00,
2013-10-13 04:37:00,48.6,36.1,30.27,North,1,0.0,0.0,62,0.00,CLR,,0.00,WeatherDisplay:10.37,2013-10-13 09:37:00,
2013-10-13 04:42:00,48.6,36.1,30.27,North,1,0.0,0.0,62,0.00,CLR,,0.00,WeatherDisplay:10.37,2013-10-13 09:42:00,
2013-10-13 04:47:00,48.6,36.1,30.27,North,1,0.0,0.0,62,0.00,CLR,,0.00,WeatherDisplay:10.37,2013-10-13 09:47:00,
2013-10-13 04:52:00,48.6,36.1,30.27,North,1,0.0,0.0,62,0.00,CLR,,0.00,WeatherDisplay:10.37,2013-10-13 09:52:00,
2013-10-13 04:57:00,48.4,36.0,30.27,North,1,0.0,0.0,62,0.00,CLR,,0.00,WeatherDisplay:10.37,2013-10-13 09:57:00,
2013-10-13 05:02:00,48.4,36.0,30.27,North,1,0.0,0.0,62,0.00,CLR,,0.00,WeatherDisplay:10.37,2013-10-13 10:02:00,
2013-10-13 05:07:00,48.4,36.0,30.27,North,1,0.0,0.0,62,0.00,CLR,,0.00,WeatherDisplay:10.37,2013-10-13 10:07:00,
2013-10-13 05:12:00,48.4,36.0,30.27,North,1,0.0,0.0,62,0.00,CLR,,0.00,WeatherDisplay:10.37,2013-10-13 10:12:00,
2013-10-13 05:17:00,48.4,36.0,30.27,North,1,0.0,0.0,62,0.00,CLR,,0.00,WeatherDisplay:10.37,2013-10-13 10:17:00,
2013-10-13 05:22:00,48.4,36.0,30.27,North,1,0.0,0.0,62,0.00,CLR,,0.00,WeatherDisplay:10.37,2013-10-13 10:22:00,
2013-10-13 05:27:00,48.4,35.5,30.27,North,1,0.0,0.0,61,0.00,CLR,,0.00,WeatherDisplay:10.37,2013-10-13 10:27:00,
2013-10-13 05:32:00,48.4,35.5,30.27,North,1,0.0,0.0,61,0.00,CLR,,0.00,WeatherDisplay:10.37,2013-10-13 10:32:00,
2013-10-13 05:37:00,48.4,35.5,30.27,North,1,0.0,0.0,61,0.00,CLR,,0.00,WeatherDisplay:10.37,2013-10-13 10:37:00,
2013-10-13 05:42:00,48.4,35.5,30.28,North,1,0.0,0.0,61,0.00,CLR,,0.00,WeatherDisplay:10.37,2013-10-13 10:42:00,
2013-10-13 05:47:00,48.4,35.5,30.28,North,1,0.0,0.0,61,0.00,CLR,,0.00,WeatherDisplay:10.37,2013-10-13 10:47:00,
2013-10-13 05:52:00,48.2,35.4,30.28,North,1,0.0,0.0,61,0.00,CLR,,0.00,WeatherDisplay:10.37,2013-10-13 10:52:00,
2013-10-13 05:57:00,48.0,34.8,30.28,North,1,0.0,0.0,60,0.00,CLR,,0.00,WeatherDisplay:10.37,2013-10-13 10:57:00,
2013-10-13 06:02:00,48.0,34.8,30.29,North,1,0.0,0.0,60,0.00,CLR,,0.00,WeatherDisplay:10.37,2013-10-13 11:02:00,
2013-10-13 06:07:00,48.0,35.2,30.28,North,1,0.0,0.0,61,0.00,CLR,,0.00,WeatherDisplay:10.37,2013-10-13 11:07:00,
2013-10-13 06:12:00,48.0,35.2,30.28,North,1,0.0,0.0,61,0.00,CLR,,0.00,WeatherDisplay:10.37,2013-10-13 11:12:00,
2013-10-13 06:17:00,48.0,35.2,30.28,North,1,0.0,0.0,61,0.00,CLR,,0.00,WeatherDisplay:10.37,2013-10-13 11:17:00,
2013-10-13 06:22:00,48.0,35.2,30.28,North,1,0.0,0.0,61,0.00,CLR,,0.00,WeatherDisplay:10.37,2013-10-13 11:22:00,
2013-10-13 06:27:00,47.8,35.0,30.28,North,1,0.0,0.0,61,0.00,CLR,,0.00,WeatherDisplay:10.37,2013-10-13 11:27:00,
2013-10-13 06:32:00,47.8,34.6,30.28,North,1,0.0,0.0,60,0.00,CLR,,0.00,WeatherDisplay:10.37,2013-10-13 11:32:00,
2013-10-13 06:37:00,48.0,34.8,30.28,North,1,0.0,0.0,60,0.00,CLR,,0.00,WeatherDisplay:10.37,2013-10-13 11:37:00,
2013-10-13 06:42:00,48.0,34.8,30.29,North,1,0.0,0.0,60,0.00,CLR,,0.00,WeatherDisplay:10.37,2013-10-13 11:42:00,
2013-10-13 06:47:00,47.8,34.6,30.30,North,1,0.0,0.0,60,0.00,CLR,,0.00,WeatherDisplay:10.37,2013-10-13 11:47:00,
2013-10-13 06:52:00,47.8,34.6,30.30,North,1,0.0,0.0,60,0.00,CLR,,0.00,WeatherDisplay:10.37,2013-10-13 11:52:00,
2013-10-13 06:57:00,47.8,34.6,30.30,North,1,0.0,0.0,60,0.00,CLR,,0.00,WeatherDisplay:10.37,2013-10-13 11:57:00,
2013-10-13 07:02:00,47.8,34.6,30.30,North,1,0.0,0.0,60,0.00,CLR,,0.00,WeatherDisplay:10.37,2013-10-13 12:02:00,
2013-10-13 07:07:00,47.8,34.6,30.30,North,1,0.0,0.0,60,0.00,CLR,,0.00,WeatherDisplay:10.37,2013-10-13 12:07:00,
2013-10-13 07:12:00,47.8,35.0,30.31,North,1,0.0,0.0,61,0.00,CLR,,0.00,WeatherDisplay:10.37,2013-10-13 12:12:00,
2013-10-13 07:17:00,47.7,34.9,30.31,North,1,0.0,0.0,61,0.00,CLR,,0.00,WeatherDisplay:10.37,2013-10-13 12:17:00,
2013-10-13 07:22:00,47.7,34.9,30.30,North,1,0.0,0.0,61,0.00,CLR,,0.00,WeatherDisplay:10.37,2013-10-13 12:22:00,
2013-10-13 07:27:00,47.7,34.9,30.31,North,1,0.0,0.0,61,0.00,CLR,,0.00,WeatherDisplay:10.37,2013-10-13 12:27:00,
2013-10-13 07:32:00,47.7,34.9,30.31,North,1,0.0,0.0,61,0.00,CLR,,0.00,WeatherDisplay:10.37,2013-10-13 12:32:00,
2013-10-13 07:37:00,47.5,34.7,30.31,North,1,0.0,0.0,61,0.00,CLR,,0.00,WeatherDisplay:10.37,2013-10-13 12:37:00,
2013-10-13 07:42:00,47.5,34.7,30.31,North,1,0.0,0.0,61,0.00,CLR,,0.00,WeatherDisplay:10.37,2013-10-13 12:42:00,
2013-10-13 07:47:00,47.5,34.7,30.31,North,1,0.0,0.0,61,0.00,CLR,,0.00,WeatherDisplay:10.37,2013-10-13 12:47:00,
2013-10-13 07:52:00,47.5,34.7,30.31,North,1,0.0,0.0,61,0.00,CLR,,0.00,WeatherDisplay:10.37,2013-10-13 12:52:00,
2013-10-13 07:57:00,47.5,34.7,30.32,North,1,0.0,0.0,61,0.00,CLR,,0.00,WeatherDisplay:10.37,2013-10-13 12:57:00,
2013-10-13 08:02:00,47.5,34.7,30.32,North,1,0.0,0.0,61,0.00,CLR,,0.00,WeatherDisplay:10.37,2013-10-13 13:02:00,
2013-10-13 08:07:00,47.7,35.3,30.32,North,1,0.0,0.0,62,0.00,CLR,,0.00,WeatherDisplay:10.37,2013-10-13 13:07:00,
2013-10-13 08:12:00,47.8,35.4,30.33,North,1,0.0,0.0,62,0.00,CLR,,0.00,WeatherDisplay:10.37,2013-10-13 13:12:00,
2013-10-13 08:17:00,48.0,35.6,30.33,North,1,0.0,0.0,62,0.00,CLR,,0.00,WeatherDisplay:10.37,2013-10-13 13:17:00,
2013-10-13 08:22:00,48.0,35.2,30.33,North,1,0.0,0.0,61,0.00,CLR,,0.00,WeatherDisplay:10.37,2013-10-13 13:22:00,
2013-10-13 08:27:00,48.6,35.7,30.34,North,1,0.0,0.0,61,0.00,CLR,,0.00,WeatherDisplay:10.37,2013-10-13 13:27:00,
2013-10-13 08:32:00,48.9,36.1,30.34,North,1,0.0,0.0,61,0.00,CLR,,0.00,WeatherDisplay:10.37,2013-10-13 13:32:00,
2013-10-13 08:37:00,49.5,36.6,30.34,North,1,0.0,0.0,61,0.00,CLR,,0.00,WeatherDisplay:10.37,2013-10-13 13:37:00,
2013-10-13 08:42:00,50.4,37.4,30.34,North,1,0.0,0.0,61,0.00,CLR,,0.00,WeatherDisplay:10.37,2013-10-13 13:42:00,
2013-10-13 08:47:00,51.4,38.4,30.34,North,1,0.0,0.0,61,0.00,CLR,,0.00,WeatherDisplay:10.37,2013-10-13 13:47:00,
2013-10-13 08:52:00,53.2,39.7,30.35,North,1,0.0,0.0,60,0.00,CLR,,0.00,WeatherDisplay:10.37,2013-10-13 13:52:00,
2013-10-13 08:57:00,54.7,40.2,30.35,North,1,0.0,0.0,58,0.00,CLR,,0.00,WeatherDisplay:10.37,2013-10-13 13:57:00,
2013-10-13 09:02:00,56.7,40.7,30.35,North,1,0.0,0.0,55,0.00,CLR,,0.00,WeatherDisplay:10.37,2013-10-13 14:02:00,
2013-10-13 09:07:00,57.9,41.4,30.35,North,1,0.0,0.0,54,0.00,CLR,,0.00,WeatherDisplay:10.37,2013-10-13 14:07:00,
2013-10-13 09:12:00,59.2,42.0,30.35,North,1,0.0,0.0,53,0.00,CLR,,0.00,WeatherDisplay:10.37,2013-10-13 14:12:00,
2013-10-13 09:17:00,61.0,42.2,30.35,North,1,0.0,0.0,50,0.00,CLR,,0.00,WeatherDisplay:10.37,2013-10-13 14:17:00,
2013-10-13 09:22:00,61.7,42.9,30.35,North,1,0.0,0.0,50,0.00,CLR,,0.00,WeatherDisplay:10.37,2013-10-13 14:22:00,
2013-10-13 09:27:00,62.4,42.5,30.35,North,1,0.0,0.0,48,0.00,CLR,,0.00,WeatherDisplay:10.37,2013-10-13 14:27:00,
2013-10-13 09:32:00,63.0,42.4,30.35,North,1,0.0,0.0,47,0.00,CLR,,0.00,WeatherDisplay:10.37,2013-10-13 14:32:00,
2013-10-13 09:37:00,63.7,41.9,30.36,North,1,0.0,0.0,45,0.00,CLR,,0.00,WeatherDisplay:10.37,2013-10-13 14:37:00,
2013-10-13 09:42:00,64.0,42.3,30.36,North,1,0.0,0.0,45,0.00,CLR,,0.00,WeatherDisplay:10.37,2013-10-13 14:42:00,
2013-10-13 09:47:00,64.8,42.9,30.35,North,1,0.0,0.0,45,0.00,CLR,,0.00,WeatherDisplay:10.37,2013-10-13 14:47:00,
2013-10-13 09:52:00,65.1,42.7,30.36,North,1,0.0,0.0,44,0.00,CLR,,0.00,WeatherDisplay:10.37,2013-10-13 14:52:00,
2013-10-13 09:57:00,65.5,43.0,30.36,North,1,0.0,0.0,44,0.00,CLR,,0.00,WeatherDisplay:10.37,2013-10-13 14:57:00,
2013-10-13 10:02:00,66.2,43.0,30.36,North,1,0.0,0.0,43,0.00,CLR,,0.00,WeatherDisplay:10.37,2013-10-13 15:02:00,
2013-10-13 10:07:00,66.6,43.4,30.36,North,1,0.0,0.0,43,0.00,CLR,,0.00,WeatherDisplay:10.37,2013-10-13 15:07:00,
2013-10-13 10:12:00,66.6,42.7,30.36,North,1,0.0,0.0,42,0.00,CLR,,0.00,WeatherDisplay:10.37,2013-10-13 15:12:00,
2013-10-13 10:17:00,66.9,43.1,30.36,North,1,0.0,0.0,42,0.00,CLR,,0.00,WeatherDisplay:10.37,2013-10-13 15:17:00,
2013-10-13 10:22:00,67.3,43.4,30.36,North,1,0.0,0.0,42,0.00,CLR,,0.00,WeatherDisplay:10.37,2013-10-13 15:22:00,
2013-10-13 10:27:00,67.3,43.4,30.37,North,1,0.0,0.0,42,0.00,CLR,,0.00,WeatherDisplay:10.37,2013-10-13 15:27:00,
2013-10-13 10:32:00,67.3,43.4,30.37,North,1,0.0,0.0,42,0.00,CLR,,0.00,WeatherDisplay:10.37,2013-10-13 15:32:00,
2013-10-13 10:37:00,67.5,42.9,30.37,North,1,0.0,0.0,41,0.00,CLR,,0.00,WeatherDisplay:10.37,2013-10-13 15:37:00,
2013-10-13 10:42:00,67.6,43.1,30.37,North,1,0.0,0.0,41,0.00,CLR,,0.00,WeatherDisplay:10.37,2013-10-13 15:42:00,
2013-10-13 10:47:00,67.8,42.6,30.37,North,1,0.0,0.0,40,0.00,CLR,,0.00,WeatherDisplay:10.37,2013-10-13 15:47:00,
2013-10-13 10:52:00,68.0,42.8,30.36,North,1,0.0,0.0,40,0.00,CLR,,0.00,WeatherDisplay:10.37,2013-10-13 15:52:00,
2013-10-13 10:57:00,68.4,43.1,30.36,North,1,0.0,0.0,40,0.00,CLR,,0.00,WeatherDisplay:10.37,2013-10-13 15:57:00,
2013-10-13 11:02:00,69.6,43.6,30.36,North,1,0.0,0.0,39,0.00,CLR,,0.00,WeatherDisplay:10.37,2013-10-13 16:02:00,
2013-10-13 11:07:00,70.0,43.2,30.36,North,1,0.0,0.0,38,0.00,CLR,,0.00,WeatherDisplay:10.37,2013-10-13 16:07:00,
2013-10-13 11:12:00,70.0,43.2,30.36,North,1,0.0,0.0,38,0.00,CLR,,0.00,WeatherDisplay:10.37,2013-10-13 16:12:00,
2013-10-13 11:17:00,70.7,43.8,30.37,North,1,0.0,0.0,38,0.00,CLR,,0.00,WeatherDisplay:10.37,2013-10-13 16:17:00,
2013-10-13 11:22:00,70.9,42.6,30.36,North,1,0.0,0.0,36,0.00,CLR,,0.00,WeatherDisplay:10.37,2013-10-13 16:22:00,
2013-10-13 11:27:00,71.1,42.0,30.36,North,1,0.0,0.0,35,0.00,CLR,,0.00,WeatherDisplay:10.37,2013-10-13 16:27:00,
2013-10-13 11:32:00,70.7,40.9,30.37,North,1,0.0,0.0,34,0.00,CLR,,0.00,WeatherDisplay:10.37,2013-10-13 16:32:00,
2013-10-13 11:37:00,70.9,41.1,30.37,North,1,0.0,0.0,34,0.00,CLR,,0.00,WeatherDisplay:10.37,2013-10-13 16:37:00,
2013-10-13 11:42:00,71.1,41.3,30.36,North,1,0.0,0.0,34,0.00,CLR,,0.00,WeatherDisplay:10.37,2013-10-13 16:42:00,
2013-10-13 11:47:00,72.0,42.0,30.36,North,1,0.0,0.0,34,0.00,CLR,,0.00,WeatherDisplay:10.37,2013-10-13 16:47:00,
2013-10-13 11:52:00,72.5,41.7,30.36,North,1,0.0,0.0,33,0.00,CLR,,0.00,WeatherDisplay:10.37,2013-10-13 16:52:00,
2013-10-13 11:57:00,72.7,41.9,30.36,North,1,0.0,0.0,33,0.00,CLR,,0.00,WeatherDisplay:10.37,2013-10-13 16:57:00,
2013-10-13 12:02:00,73.8,42.9,30.36,North,1,0.0,0.0,33,0.00,CLR,,0.00,WeatherDisplay:10.37,2013-10-13 17:02:00,
2013-10-13 12:07:00,74.1,42.4,30.36,North,1,0.0,0.0,32,0.00,CLR,,0.00,WeatherDisplay:10.37,2013-10-13 17:07:00,
2013-10-13 12:12:00,74.5,42.7,30.35,North,1,0.0,0.0,32,0.00,CLR,,0.00,WeatherDisplay:10.37,2013-10-13 17:12:00,
2013-10-13 12:17:00,75.6,42.8,30.35,North,1,0.0,0.0,31,0.00,CLR,,0.00,WeatherDisplay:10.37,2013-10-13 17:17:00,
2013-10-13 12:22:00,75.6,41.9,30.36,North,1,0.0,0.0,30,0.00,CLR,,0.00,WeatherDisplay:10.37,2013-10-13 17:22:00,
2013-10-13 12:27:00,75.6,41.9,30.35,North,1,0.0,0.0,30,0.00,CLR,,0.00,WeatherDisplay:10.37,2013-10-13 17:27:00,
2013-10-13 12:32:00,75.7,41.2,30.35,North,1,0.0,0.0,29,0.00,CLR,,0.00,WeatherDisplay:10.37,2013-10-13 17:32:00,
2013-10-13 12:37:00,75.6,41.1,30.35,North,1,0.0,0.0,29,0.00,CLR,,0.00,WeatherDisplay:10.37,2013-10-13 17:37:00,
2013-10-13 12:42:00,75.6,41.9,30.35,North,1,0.0,0.0,30,0.00,CLR,,0.00,WeatherDisplay:10.37,2013-10-13 17:42:00,
2013-10-13 12:47:00,75.6,41.9,30.35,North,1,0.0,0.0,30,0.00,CLR,,0.00,WeatherDisplay:10.37,2013-10-13 17:47:00,
2013-10-13 12:52:00,75.4,41.8,30.35,North,1,0.0,0.0,30,0.00,CLR,,0.00,WeatherDisplay:10.37,2013-10-13 17:52:00,
2013-10-13 12:57:00,75.0,40.6,30.35,North,1,0.0,0.0,29,0.00,CLR,,0.00,WeatherDisplay:10.37,2013-10-13 17:57:00,
2013-10-13 13:02:00,74.7,40.3,30.35,North,1,0.0,0.0,29,0.00,CLR,,0.00,WeatherDisplay:10.37,2013-10-13 18:02:00,
2013-10-13 13:07:00,74.5,40.1,30.34,North,1,0.0,0.0,29,0.00,CLR,,0.00,WeatherDisplay:10.37,2013-10-13 18:07:00,
2013-10-13 13:12:00,74.8,40.4,30.34,North,1,0.0,0.0,29,0.00,CLR,,0.00,WeatherDisplay:10.37,2013-10-13 18:12:00,
2013-10-13 13:17:00,74.8,40.4,30.34,North,1,0.0,0.0,29,0.00,CLR,,0.00,WeatherDisplay:10.37,2013-10-13 18:17:00,
2013-10-13 13:22:00,74.8,40.4,30.34,North,1,0.0,0.0,29,0.00,CLR,,0.00,WeatherDisplay:10.37,2013-10-13 18:22:00,
2013-10-13 13:27:00,75.4,40.9,30.33,North,1,0.0,0.0,29,0.00,CLR,,0.00,WeatherDisplay:10.37,2013-10-13 18:27:00,
2013-10-13 13:32:00,75.0,40.6,30.33,North,1,0.0,0.0,29,0.00,CLR,,0.00,WeatherDisplay:10.37,2013-10-13 18:32:00,
2013-10-13 13:37:00,74.7,40.3,30.33,North,1,0.0,0.0,29,0.00,CLR,,0.00,WeatherDisplay:10.37,2013-10-13 18:37:00,
2013-10-13 13:42:00,74.5,40.1,30.33,North,1,0.0,0.0,29,0.00,CLR,,0.00,WeatherDisplay:10.37,2013-10-13 18:42:00,
2013-10-13 13:47:00,74.7,40.3,30.32,North,1,0.0,0.0,29,0.00,CLR,,0.00,WeatherDisplay:10.37,2013-10-13 18:47:00,
2013-10-13 13:52:00,74.7,40.3,30.32,North,1,0.0,0.0,29,0.00,CLR,,0.00,WeatherDisplay:10.37,2013-10-13 18:52:00,
2013-10-13 13:57:00,74.7,40.3,30.32,North,1,0.0,0.0,29,0.00,CLR,,0.00,WeatherDisplay:10.37,2013-10-13 18:57:00,
2013-10-13 14:02:00,74.7,40.3,30.31,North,1,0.0,0.0,29,0.00,CLR,,0.00,WeatherDisplay:10.37,2013-10-13 19:02:00,
2013-10-13 14:07:00,74.7,41.2,30.31,North,1,0.0,0.0,30,0.00,CLR,,0.00,WeatherDisplay:10.37,2013-10-13 19:07:00,
2013-10-13 14:12:00,75.0,40.6,30.31,North,1,0.0,0.0,29,0.00,CLR,,0.00,WeatherDisplay:10.37,2013-10-13 19:12:00,
2013-10-13 14:17:00,75.0,40.6,30.30,North,1,0.0,0.0,29,0.00,CLR,,0.00,WeatherDisplay:10.37,2013-10-13 19:17:00,
2013-10-13 14:22:00,74.8,40.4,30.30,North,1,0.0,0.0,29,0.00,CLR,,0.00,WeatherDisplay:10.37,2013-10-13 19:22:00,
2013-10-13 14:27:00,74.5,40.1,30.30,North,1,0.0,0.0,29,0.00,CLR,,0.00,WeatherDisplay:10.37,2013-10-13 19:27:00,
2013-10-13 14:32:00,74.5,41.0,30.30,North,1,0.0,0.0,30,0.00,CLR,,0.00,WeatherDisplay:10.37,2013-10-13 19:32:00,
2013-10-13 14:37:00,74.3,40.0,30.30,North,1,0.0,0.0,29,0.00,CLR,,0.00,WeatherDisplay:10.37,2013-10-13 19:37:00,
2013-10-13 14:42:00,74.1,39.8,30.30,North,1,0.0,0.0,29,0.00,CLR,,0.00,WeatherDisplay:10.37,2013-10-13 19:42:00,
2013-10-13 14:47:00,73.6,39.4,30.29,North,1,0.0,0.0,29,0.00,CLR,,0.00,WeatherDisplay:10.37,2013-10-13 19:47:00,
2013-10-13 14:52:00,73.2,39.9,30.30,North,1,0.0,0.0,30,0.00,CLR,,0.00,WeatherDisplay:10.37,2013-10-13 19:52:00,
2013-10-13 14:57:00,73.0,39.8,30.29,North,1,0.0,0.0,30,0.00,CLR,,0.00,WeatherDisplay:10.37,2013-10-13 19:57:00,
2013-10-13 15:02:00,73.2,39.9,30.29,North,1,0.0,0.0,30,0.00,CLR,,0.00,WeatherDisplay:10.37,2013-10-13 20:02:00,
2013-10-13 15:07:00,73.2,39.9,30.29,North,1,0.0,0.0,30,0.00,CLR,,0.00,WeatherDisplay:10.37,2013-10-13 20:07:00,
2013-10-13 15:12:00,73.2,39.9,30.29,North,1,0.0,0.0,30,0.00,CLR,,0.00,WeatherDisplay:10.37,2013-10-13 20:12:00,
2013-10-13 15:17:00,73.2,39.9,30.29,North,1,0.0,0.0,30,0.00,CLR,,0.00,WeatherDisplay:10.37,2013-10-13 20:17:00,
2013-10-13 15:22:00,73.2,39.9,30.28,North,1,0.0,0.0,30,0.00,CLR,,0.00,WeatherDisplay:10.37,2013-10-13 20:22:00,
2013-10-13 15:27:00,73.2,39.9,30.28,North,1,0.0,0.0,30,0.00,CLR,,0.00,WeatherDisplay:10.37,2013-10-13 20:27:00,
2013-10-13 15:32:00,72.5,39.3,30.28,North,1,0.0,0.0,30,0.00,CLR,,0.00,WeatherDisplay:10.37,2013-10-13 20:32:00,
2013-10-13 15:37:00,72.3,39.1,30.28,North,1,0.0,0.0,30,0.00,CLR,,0.00,WeatherDisplay:10.37,2013-10-13 20:37:00,
2013-10-13 15:42:00,72.5,39.3,30.28,North,1,0.0,0.0,30,0.00,CLR,,0.00,WeatherDisplay:10.37,2013-10-13 20:42:00,
2013-10-13 15:47:00,72.5,39.3,30.28,North,1,0.0,0.0,30,0.00,CLR,,0.00,WeatherDisplay:10.37,2013-10-13 20:47:00,
2013-10-13 15:52:00,72.3,39.1,30.27,North,1,0.0,0.0,30,0.00,CLR,,0.00,WeatherDisplay:10.37,2013-10-13 20:52:00,
2013-10-13 15:57:00,72.3,39.1,30.27,North,1,0.0,0.0,30,0.00,CLR,,0.00,WeatherDisplay:10.37,2013-10-13 20:57:00,
2013-10-13 16:02:00,72.3,39.1,30.27,North,1,0.0,0.0,30,0.00,CLR,,0.00,WeatherDisplay:10.37,2013-10-13 21:02:00,
2013-10-13 16:07:00,72.3,39.1,30.27,North,1,0.0,0.0,30,0.00,CLR,,0.00,WeatherDisplay:10.37,2013-10-13 21:07:00,
2013-10-13 16:12:00,72.3,39.1,30.27,North,1,0.0,0.0,30,0.00,CLR,,0.00,WeatherDisplay:10.37,2013-10-13 21:12:00,
2013-10-13 16:17:00,72.1,39.0,30.26,North,1,0.0,0.0,30,0.00,CLR,,0.00,WeatherDisplay:10.37,2013-10-13 21:17:00,
2013-10-13 16:22:00,72.0,38.8,30.26,North,1,0.0,0.0,30,0.00,CLR,,0.00,WeatherDisplay:10.37,2013-10-13 21:22:00,
2013-10-13 16:27:00,71.8,38.7,30.26,North,1,0.0,0.0,30,0.00,CLR,,0.00,WeatherDisplay:10.37,2013-10-13 21:27:00,
2013-10-13 16:32:00,71.8,38.7,30.26,North,1,0.0,0.0,30,0.00,CLR,,0.00,WeatherDisplay:10.37,2013-10-13 21:32:00,
2013-10-13 16:37:00,71.6,38.5,30.26,North,1,0.0,0.0,30,0.00,CLR,,0.00,WeatherDisplay:10.37,2013-10-13 21:37:00,
2013-10-13 16:42:00,71.4,38.4,30.26,North,1,0.0,0.0,30,0.00,CLR,,0.00,WeatherDisplay:10.37,2013-10-13 21:42:00,
2013-10-13 16:47:00,71.4,38.4,30.26,North,1,0.0,0.0,30,0.00,CLR,,0.00,WeatherDisplay:10.37,2013-10-13 21:47:00,
2013-10-13 16:52:00,71.2,38.2,30.26,North,1,0.0,0.0,30,0.00,CLR,,0.00,WeatherDisplay:10.37,2013-10-13 21:52:00,
2013-10-13 16:57:00,71.2,39.0,30.26,North,1,0.0,0.0,31,0.00,CLR,,0.00,WeatherDisplay:10.37,2013-10-13 21:57:00,
2013-10-13 17:02:00,71.1,38.0,30.25,North,1,0.0,0.0,30,0.00,CLR,,0.00,WeatherDisplay:10.37,2013-10-13 22:02:00,
2013-10-13 17:07:00,71.1,38.9,30.25,North,1,0.0,0.0,31,0.00,CLR,,0.00,WeatherDisplay:10.37,2013-10-13 22:07:00,
2013-10-13 17:12:00,70.7,38.6,30.25,North,1,0.0,0.0,31,0.00,CLR,,0.00,WeatherDisplay:10.37,2013-10-13 22:12:00,
2013-10-13 17:17:00,70.7,38.6,30.25,North,1,0.0,0.0,31,0.00,CLR,,0.00,WeatherDisplay:10.37,2013-10-13 22:17:00,
2013-10-13 17:22:00,70.5,38.4,30.25,North,1,0.0,0.0,31,0.00,CLR,,0.00,WeatherDisplay:10.37,2013-10-13 22:22:00,
2013-10-13 17:27:00,70.3,38.3,30.25,North,1,0.0,0.0,31,0.00,CLR,,0.00,WeatherDisplay:10.37,2013-10-13 22:27:00,
2013-10-13 17:32:00,70.2,38.1,30.25,North,1,0.0,0.0,31,0.00,CLR,,0.00,WeatherDisplay:10.37,2013-10-13 22:32:00,
2013-10-13 17:37:00,70.2,38.1,30.25,North,1,0.0,0.0,31,0.00,CLR,,0.00,WeatherDisplay:10.37,2013-10-13 22:37:00,
2013-10-13 17:42:00,70.2,38.1,30.25,North,1,0.0,0.0,31,0.00,CLR,,0.00,WeatherDisplay:10.37,2013-10-13 22:42:00,
2013-10-13 17:47:00,69.6,38.4,30.25,North,1,0.0,0.0,32,0.00,CLR,,0.00,WeatherDisplay:10.37,2013-10-13 22:47:00,
2013-10-13 17:52:00,69.1,38.0,30.25,North,1,0.0,0.0,32,0.00,CLR,,0.00,WeatherDisplay:10.37,2013-10-13 22:52:00,
2013-10-13 17:57:00,68.5,37.5,30.25,North,1,0.0,0.0,32,0.00,CLR,,0.00,WeatherDisplay:10.37,2013-10-13 22:57:00,
2013-10-13 18:02:00,68.2,38.0,30.25,North,1,0.0,0.0,33,0.00,CLR,,0.00,WeatherDisplay:10.37,2013-10-13 23:02:00,
2013-10-13 18:07:00,67.8,37.6,30.25,North,1,0.0,0.0,33,0.00,CLR,,0.00,WeatherDisplay:10.37,2013-10-13 23:07:00,
2013-10-13 18:12:00,67.5,38.1,30.25,North,1,0.0,0.0,34,0.00,CLR,,0.00,WeatherDisplay:10.37,2013-10-13 23:12:00,
2013-10-13 18:17:00,67.1,37.8,30.25,North,1,0.0,0.0,34,0.00,CLR,,0.00,WeatherDisplay:10.37,2013-10-13 23:17:00,
2013-10-13 18:22:00,66.6,37.3,30.25,North,1,0.0,0.0,34,0.00,CLR,,0.00,WeatherDisplay:10.37,2013-10-13 23:22:00,
2013-10-13 18:27:00,66.4,37.9,30.25,North,1,0.0,0.0,35,0.00,CLR,,0.00,WeatherDisplay:10.37,2013-10-13 23:27:00,
2013-10-13 18:32:00,66.0,37.6,30.25,North,1,0.0,0.0,35,0.00,CLR,,0.00,WeatherDisplay:10.37,2013-10-13 23:32:00,
2013-10-13 18:37:00,65.5,37.8,30.25,North,1,0.0,0.0,36,0.00,CLR,,0.00,WeatherDisplay:10.37,2013-10-13 23:37:00,
2013-10-13 18:42:00,65.3,37.6,30.25,North,1,0.0,0.0,36,0.00,CLR,,0.00,WeatherDisplay:10.37,2013-10-13 23:42:00,
2013-10-13 18:47:00,64.8,37.2,30.25,North,1,0.0,0.0,36,0.00,CLR,,0.00,WeatherDisplay:10.37,2013-10-13 23:47:00,
2013-10-13 18:52:00,64.4,36.8,30.25,North,1,0.0,0.0,36,0.00,CLR,,0.00,WeatherDisplay:10.37,2013-10-13 23:52:00,
2013-10-13 18:57:00,63.9,37.1,30.25,North,1,0.0,0.0,37,0.00,CLR,,0.00,WeatherDisplay:10.37,2013-10-13 23:57:00,
2013-10-13 19:02:00,63.7,36.9,30.25,North,1,0.0,0.0,37,0.00,CLR,,0.00,WeatherDisplay:10.37,2013-10-14 00:02:00,
2013-10-13 19:07:00,63.0,36.3,30.25,North,1,0.0,0.0,37,0.00,CLR,,0.00,WeatherDisplay:10.37,2013-10-14 00:07:00,
2013-10-13 19:12:00,62.8,36.8,30.25,North,1,0.0,0.0,38,0.00,CLR,,0.00,WeatherDisplay:10.37,2013-10-14 00:12:00,
2013-10-13 19:17:00,62.4,36.5,30.26,North,1,0.0,0.0,38,0.00,CLR,,0.00,WeatherDisplay:10.37,2013-10-14 00:17:00,
2013-10-13 19:22:00,62.1,36.8,30.26,North,1,0.0,0.0,39,0.00,CLR,,0.00,WeatherDisplay:10.37,2013-10-14 00:22:00,
2013-10-13 19:27:00,61.9,36.6,30.26,North,1,0.0,0.0,39,0.00,CLR,,0.00,WeatherDisplay:10.37,2013-10-14 00:27:00,
2013-10-13 19:32:00,61.9,37.3,30.26,North,1,0.0,0.0,40,0.00,CLR,,0.00,WeatherDisplay:10.37,2013-10-14 00:32:00,
2013-10-13 19:37:00,61.5,37.0,30.26,North,1,0.0,0.0,40,0.00,CLR,,0.00,WeatherDisplay:10.37,2013-10-14 00:37:00,
2013-10-13 19:42:00,61.2,36.6,30.26,North,1,0.0,0.0,40,0.00,CLR,,0.00,WeatherDisplay:10.37,2013-10-14 00:42:00,
2013-10-13 19:47:00,61.0,36.5,30.26,North,1,0.0,0.0,40,0.00,CLR,,0.00,WeatherDisplay:10.37,2013-10-14 00:47:00,
2013-10-13 19:52:00,60.6,36.1,30.26,North,1,0.0,0.0,40,0.00,CLR,,0.00,WeatherDisplay:10.37,2013-10-14 00:52:00,
2013-10-13 19:57:00,60.3,36.4,30.26,North,1,0.0,0.0,41,0.00,CLR,,0.00,WeatherDisplay:10.37,2013-10-14 00:57:00,
2013-10-13 20:02:00,60.1,36.3,30.26,North,1,0.0,0.0,41,0.00,CLR,,0.00,WeatherDisplay:10.37,2013-10-14 01:02:00,
2013-10-13 20:07:00,59.5,36.4,30.26,North,1,0.0,0.0,42,0.00,CLR,,0.00,WeatherDisplay:10.37,2013-10-14 01:07:00,
2013-10-13 20:12:00,59.4,36.2,30.26,North,1,0.0,0.0,42,0.00,CLR,,0.00,WeatherDisplay:10.37,2013-10-14 01:12:00,
2013-10-13 20:17:00,59.2,36.1,30.26,North,1,0.0,0.0,42,0.00,CLR,,0.00,WeatherDisplay:10.37,2013-10-14 01:17:00,
2013-10-13 20:22:00,58.8,35.8,30.27,North,1,0.0,0.0,42,0.00,CLR,,0.00,WeatherDisplay:10.37,2013-10-14 01:22:00,
2013-10-13 20:27:00,58.8,35.8,30.26,North,1,0.0,0.0,42,0.00,CLR,,0.00,WeatherDisplay:10.37,2013-10-14 01:27:00,
2013-10-13 20:32:00,58.6,36.2,30.27,North,1,0.0,0.0,43,0.00,CLR,,0.00,WeatherDisplay:10.37,2013-10-14 01:32:00,
2013-10-13 20:37:00,58.5,36.0,30.27,North,1,0.0,0.0,43,0.00,CLR,,0.00,WeatherDisplay:10.37,2013-10-14 01:37:00,
2013-10-13 20:42:00,58.3,35.9,30.27,North,1,0.0,0.0,43,0.00,CLR,,0.00,WeatherDisplay:10.37,2013-10-14 01:42:00,
2013-10-13 20:47:00,58.1,35.7,30.27,North,1,0.0,0.0,43,0.00,CLR,,0.00,WeatherDisplay:10.37,2013-10-14 01:47:00,
2013-10-13 20:52:00,57.6,35.8,30.27,North,1,0.0,0.0,44,0.00,CLR,,0.00,WeatherDisplay:10.37,2013-10-14 01:52:00,
2013-10-13 20:57:00,57.6,35.8,30.27,North,1,0.0,0.0,44,0.00,CLR,,0.00,WeatherDisplay:10.37,2013-10-14 01:57:00,
2013-10-13 21:02:00,57.6,35.8,30.27,North,1,0.0,0.0,44,0.00,CLR,,0.00,WeatherDisplay:10.37,2013-10-14 02:02:00,
2013-10-13 21:07:00,57.4,35.6,30.27,North,1,0.0,0.0,44,0.00,CLR,,0.00,WeatherDisplay:10.37,2013-10-14 02:07:00,
2013-10-13 21:12:00,57.2,35.5,30.27,North,1,0.0,0.0,44,0.00,CLR,,0.00,WeatherDisplay:10.37,2013-10-14 02:12:00,
2013-10-13 21:17:00,57.0,35.9,30.27,North,1,0.0,0.0,45,0.00,CLR,,0.00,WeatherDisplay:10.37,2013-10-14 02:17:00,
2013-10-13 21:22:00,56.7,35.5,30.27,North,1,0.0,0.0,45,0.00,CLR,,0.00,WeatherDisplay:10.37,2013-10-14 02:22:00,
2013-10-13 21:27:00,56.5,35.4,30.27,North,1,0.0,0.0,45,0.00,CLR,,0.00,WeatherDisplay:10.37,2013-10-14 02:27:00,
2013-10-13 21:32:00,56.3,35.2,30.27,North,1,0.0,0.0,45,0.00,CLR,,0.00,WeatherDisplay:10.37,2013-10-14 02:32:00,
2013-10-13 21:37:00,56.1,35.6,30.26,North,1,0.0,0.0,46,0.00,CLR,,0.00,WeatherDisplay:10.37,2013-10-14 02:37:00,
2013-10-13 21:42:00,55.8,35.3,30.26,North,1,0.0,0.0,46,0.00,CLR,,0.00,WeatherDisplay:10.37,2013-10-14 02:42:00,
2013-10-13 21:47:00,55.8,35.3,30.27,North,1,0.0,0.0,46,0.00,CLR,,0.00,WeatherDisplay:10.37,2013-10-14 02:47:00,
2013-10-13 21:52:00,55.6,35.1,30.27,North,1,0.0,0.0,46,0.00,CLR,,0.00,WeatherDisplay:10.37,2013-10-14 02:52:00,
2013-10-13 21:57:00,55.6,35.1,30.27,North,1,0.0,0.0,46,0.00,CLR,,0.00,WeatherDisplay:10.37,2013-10-14 02:57:00,
2013-10-13 22:02:00,55.2,34.8,30.27,North,1,0.0,0.0,46,0.00,CLR,,0.00,WeatherDisplay:10.37,2013-10-14 03:02:00,
2013-10-13 22:07:00,55.2,35.3,30.27,North,1,0.0,0.0,47,0.00,CLR,,0.00,WeatherDisplay:10.37,2013-10-14 03:07:00,
2013-10-13 22:12:00,55.2,35.3,30.27,North,1,0.0,0.0,47,0.00,CLR,,0.00,WeatherDisplay:10.37,2013-10-14 03:12:00,
2013-10-13 22:17:00,55.0,35.2,30.27,North,1,0.0,0.0,47,0.00,CLR,,0.00,WeatherDisplay:10.37,2013-10-14 03:17:00,
2013-10-13 22:22:00,54.9,35.0,30.27,North,1,0.0,0.0,47,0.00,CLR,,0.00,WeatherDisplay:10.37,2013-10-14 03:22:00,
2013-10-13 22:27:00,54.9,35.0,30.27,North,1,0.0,0.0,47,0.00,CLR,,0.00,WeatherDisplay:10.37,2013-10-14 03:27:00,
2013-10-13 22:32:00,54.7,34.8,30.27,North,1,0.0,0.0,47,0.00,CLR,,0.00,WeatherDisplay:10.37,2013-10-14 03:32:00,
2013-10-13 22:37:00,54.5,34.7,30.27,North,1,0.0,0.0,47,0.00,CLR,,0.00,WeatherDisplay:10.37,2013-10-14 03:37:00,
2013-10-13 22:42:00,54.3,34.5,30.27,North,1,0.0,0.0,47,0.00,CLR,,0.00,WeatherDisplay:10.37,2013-10-14 03:42:00,
2013-10-13 22:47:00,54.3,34.5,30.27,North,1,0.0,0.0,47,0.00,CLR,,0.00,WeatherDisplay:10.37,2013-10-14 03:47:00,
2013-10-13 22:52:00,54.3,34.5,30.27,North,1,0.0,0.0,47,0.00,CLR,,0.00,WeatherDisplay:10.37,2013-10-14 03:52:00,
2013-10-13 22:57:00,54.1,34.3,30.27,North,1,0.0,0.0,47,0.00,CLR,,0.00,WeatherDisplay:10.37,2013-10-14 03:57:00,
2013-10-13 23:01:00,54.1,34.3,30.27,North,1,0.0,0.0,47,0.00,CLR,,0.00,WeatherDisplay:10.37,2013-10-14 04:01:00,
2013-10-13 23:02:00,54.1,34.3,30.27,North,1,0.0,0.0,47,0.00,CLR,,0.00,WeatherDisplay:10.37,2013-10-14 04:02:00,
2013-10-13 23:07:00,54.1,33.8,30.27,North,1,0.0,0.0,46,0.00,CLR,,0.00,WeatherDisplay:10.37,2013-10-14 04:07:00,
2013-10-13 23:12:00,54.1,33.8,30.26,North,1,0.0,0.0,46,0.00,CLR,,0.00,WeatherDisplay:10.37,2013-10-14 04:12:00,
2013-10-13 23:17:00,54.3,34.0,30.26,North,1,0.0,0.0,46,0.00,CLR,,0.00,WeatherDisplay:10.37,2013-10-14 04:17:00,
2013-10-13 23:22:00,54.1,33.8,30.26,North,1,0.0,0.0,46,0.00,CLR,,0.00,WeatherDisplay:10.37,2013-10-14 04:22:00,
2013-10-13 23:27:00,54.1,33.8,30.26,North,1,0.0,0.0,46,0.00,CLR,,0.00,WeatherDisplay:10.37,2013-10-14 04:27:00,
2013-10-13 23:32:00,54.0,33.6,30.26,North,1,0.0,0.0,46,0.00,CLR,,0.00,WeatherDisplay:10.37,2013-10-14 04:32:00,
2013-10-13 23:37:00,54.0,34.2,30.25,North,1,0.0,0.0,47,0.00,CLR,,0.00,WeatherDisplay:10.37,2013-10-14 04:37:00,
2013-10-13 23:42:00,54.0,34.2,30.25,North,1,0.0,0.0,47,0.00,CLR,,0.00,WeatherDisplay:10.37,2013-10-14 04:42:00,
2013-10-13 23:47:00,53.8,34.0,30.26,North,1,0.0,0.0,47,0.00,CLR,,0.00,WeatherDisplay:10.37,2013-10-14 04:47:00,
2013-10-13 23:52:00,53.8,34.0,30.25,North,1,0.0,0.0,47,0.00,CLR,,0.00,WeatherDisplay:10.37,2013-10-14 04:52:00,
2013-10-13 23:57:00,53.8,34.0,30.25,North,1,0.0,0.0,47,0.00,CLR,,0.00,WeatherDisplay:10.37,2013-10-14 04:57:00,